Location: *
(47.3724°S, 175.4464°W)
Time: 04:46:11
(UTC+00:00)

Daily predictions for brighter satellites

Satellite Brightness Start Highest point End
(mag) Time Altitude Azimuth Time Altitude Azimuth Time Altitude Azimuth
CZ-4C R/B 4.1 04:26:20 10° W 04:32:31 27° SSW 04:37:54 10° SSE
FALCON 9 DEB 3.7 04:31:51 10° WSW 04:35:16 42° SSE 04:38:39 10° E
STARLINK-1303 3.2 04:32:20 10° WNW 04:35:47 79° SSW 04:39:16 10° ESE
Cosmos 1782 2.9 04:31:49 10° S 04:35:51 60° ESE 04:39:49 10° NNE
STARLINK-1287 4.5 04:32:07 10° NNW 04:36:01 39° NE 04:39:58 10° ESE
Cosmos 1500 Rocket 3.7 04:32:03 10° N 04:36:20 55° E 04:40:40 10° SSE
STARLINK-75 3.3 04:34:22 10° WNW 04:37:36 59° SSW 04:40:52 10° ESE
STARLINK-1371 4.1 04:34:21 10° WSW 04:37:46 35° S 04:41:11 10° ESE
STARLINK-1312 3.2 04:34:19 10° WNW 04:37:46 76° SSW 04:41:16 10° ESE
Cosmos 1862 4.5 04:35:38 10° NE 04:38:55 24° E 04:42:16 10° SE
Cosmos 1689 Rocket 4.4 04:37:35 10° NNW 04:40:20 30° W 04:43:07 10° SSW
STARLINK-1341 4.1 04:37:01 10° WSW 04:40:29 35° S 04:43:55 10° ESE
SL-4 R/B 2.0 04:36:56 10° WSW 04:40:36 74° NNW 04:44:29 10° ENE
Cosmos 2322 Rocket 3.2 04:35:11 10° NW 04:40:41 47° SW 04:46:16 10° SSE
Cosmos 2237 4.4 04:35:42 10° NNW 04:41:27 78° WSW 04:47:15 10° SSE
STARLINK-1374 4.1 04:39:38 10° WSW 04:43:05 36° S 04:46:31 10° ESE
Cosmos 1408 Rocket 4.2 04:39:28 10° NNW 04:43:54 63° WSW 04:48:27 10° S
STARLINK-58 3.0 04:41:07 10° WNW 04:44:22 86° SSW 04:47:38 10° ESE
STARLINK-1339 4.1 04:42:19 10° WSW 04:45:48 36° S 04:49:15 10° ESE
STARLINK-1302 4.2 04:41:55 10° NW 04:45:56 46° NE 04:49:59 10° ESE
Cosmos 1805 Rocket 4.2 04:42:44 10° NNE 04:46:44 34° E 04:50:48 10° SSE
STARLINK-22 3.3 04:43:58 10° WNW 04:47:13 61° SSW 04:50:24 11° ESE
STARLINK-1377 4.1 04:44:40 10° WSW 04:48:07 36° S 04:51:30 10° ESE
Cosmos 2123 Rocket 4.0 04:43:51 10° S 04:50:08 68° E 04:56:22 10° NNE
STARLINK 1040 3.9 04:48:18 10° WSW 04:50:39 27° S 04:52:48 11° SE
STARLINK-1353 4.1 04:47:21 10° WSW 04:50:49 37° S 04:54:05 11° ESE
STARLINK-1273 4.1 04:46:51 10° NW 04:50:55 49° NE 04:54:46 11° ESE
Meteor 1-27 Rocket 4.4 04:46:43 10° S 04:52:06 34° ESE 04:57:28 10° NE
STARLINK-1320 3.8 04:49:20 10° SW 04:52:19 34° SSE 04:54:59 12° ESE
STARLINK-1322 3.8 04:49:39 10° SW 04:52:39 34° SSE 04:55:18 12° ESE
STARLINK-80 3.7 04:49:01 10° WNW 04:52:51 61° SSW 04:56:25 12° ESE
STARLINK-1324 3.8 04:50:01 10° SW 04:53:00 34° SSE 04:55:38 12° ESE
Cosmos 1812 3.6 04:49:45 10° SSE 04:53:13 28° ESE 04:56:38 10° NE
STARLINK-43 4.2 04:49:49 10° W 04:53:20 37° S 04:56:34 12° ESE
STARLINK-1294 3.8 04:50:23 10° SW 04:53:20 34° SSE 04:55:55 12° ESE
STARLINK-1261 3.8 04:50:40 10° SW 04:53:40 34° SSE 04:56:16 12° ESE
STARLINK-1375 4.0 04:50:22 10° WSW 04:53:53 38° S 04:57:03 12° ESE
STARLINK-1325 3.8 04:51:00 10° SW 04:53:59 34° SSE 04:56:35 12° ESE
USA 234 3.4 04:47:30 10° SE 04:54:09 82° SSW 05:00:46 10° WNW
Cosmos 1538 Rocket 4.1 04:49:02 10° NNW 04:54:17 83° WSW 04:59:33 10° SSE
STARLINK-1333 3.8 04:51:24 10° SW 04:54:22 34° SSE 04:56:57 13° ESE
STARLINK-1334 3.8 04:51:42 10° SW 04:54:42 34° SSE 04:57:16 13° ESE
COSMOS 2428 3.1 04:49:29 10° N 04:54:58 47° ENE 05:00:31 10° SE
STARLINK-1326 3.8 04:52:03 10° SW 04:55:03 35° SSE 04:57:35 13° ESE
Cosmos 1461 3.5 04:51:30 10° SSW 04:55:09 31° SE 04:58:41 10° ENE
STARLINK-1323 3.8 04:52:21 10° SW 04:55:21 35° SSE 04:57:54 13° ESE
STARLINK-1349 3.8 04:52:44 10° SW 04:55:44 35° SSE 04:58:15 13° ESE
STARLINK-1288 4.0 04:51:45 10° NW 04:55:51 53° NE 04:59:32 13° ESE
STARLINK-1336 3.7 04:53:03 10° SW 04:56:03 35° SSE 04:58:33 13° ESE
STARLINK-1350 4.0 04:52:46 10° WSW 04:56:15 38° SSE 04:59:16 13° ESE
STARLINK-1331 3.7 04:53:26 10° SW 04:56:26 35° SSE 04:58:55 13° ESE
STARLINK-1344 3.7 04:53:47 10° SW 04:56:47 35° SSE 04:59:15 13° ESE
STARLINK-1343 3.7 04:54:03 10° SW 04:57:03 35° SSE 04:59:31 14° ESE
STARLINK-1346 3.7 04:54:29 10° SW 04:57:27 35° SSE 04:59:51 14° ESE
STARLINK-1328 3.7 04:54:45 10° SW 04:57:45 35° SSE 05:00:11 14° ESE
STARLINK-1354 3.7 04:55:04 10° SW 04:58:04 35° SSE 05:00:30 14° ESE
ADEOS Rocket 3.8 04:50:41 10° NNE 04:58:19 84° WNW 05:06:16 10° SSW
STARLINK-1347 3.7 04:55:26 10° SW 04:58:26 35° SSE 05:00:51 14° ESE
STARLINK-1357 3.7 04:55:46 10° SW 04:58:46 35° SSE 05:01:09 14° ESE
STARLINK-1352 4.0 04:55:30 10° WSW 04:58:59 38° SSE 05:01:54 14° ESE
STARLINK-1335 3.7 04:56:09 10° SW 04:59:10 36° SSE 05:01:32 14° ESE
STARLINK-1327 3.7 04:56:26 10° SW 04:59:26 36° SSE 05:01:48 14° ESE
STARLINK-1340 3.7 04:56:46 10° SW 04:59:46 36° SSE 05:02:08 15° ESE
STARLINK-1356 3.7 04:57:07 10° SW 05:00:07 36° SSE 05:02:27 15° ESE
STARLINK-1345 3.7 04:57:26 10° SW 05:00:28 36° SSE 05:02:47 15° ESE
ATLAS 5 CENTAUR R/B 3.9 04:55:20 10° NNE 05:00:36 22° ENE 05:04:51 13° ESE
STARLINK-1355 3.7 04:57:46 10° SW 05:00:48 36° SSE 05:03:06 15° ESE
STARLINK-1308 3.9 04:56:43 10° NW 05:00:50 58° NE 05:04:21 14° ESE
STARLINK-1321 3.7 04:58:08 10° SW 05:01:10 36° SSE 05:03:27 15° ESE
STARLINK-1358 3.7 04:58:27 10° SW 05:01:28 36° SSE 05:03:45 15° ESE
STARLINK-1283 3.8 04:57:53 10° W 05:01:41 54° SSW 05:04:52 14° SE
STARLINK-1368 4.0 04:58:15 10° WSW 05:01:45 39° SSE 05:04:33 14° ESE
Meteor 1-31 Rocket 3.8 04:57:57 10° S 05:01:51 49° WSW 05:05:42 10° NNW
STARLINK-1332 3.7 04:58:52 10° SW 05:01:53 36° SSE 05:04:08 15° ESE
Cosmos 1535 Rocket 4.5 04:55:52 10° N 05:02:04 74° E 05:08:17 10° SSE
STARLINK-1348 3.7 04:59:10 10° SW 05:02:11 36° SSE 05:04:25 15° ESE
STARLINK-1330 3.7 04:59:28 10° SW 05:02:30 36° SSE 05:04:43 16° ESE
STARLINK-60 3.6 04:59:19 10° WSW 05:02:34 59° NNW 05:05:47 10° NE
STARLINK-1363 3.7 04:59:53 10° SW 05:02:54 37° SSE 05:05:07 16° ESE
STARLINK-1311 3.5 04:59:58 10° W 05:02:55 46° SSW 05:05:12 15° SE
STARLINK-1337 3.7 05:00:09 10° SW 05:03:11 37° SSE 05:05:23 16° ESE
STARLINK-1342 3.7 05:00:30 10° SW 05:03:31 37° SSE 05:05:43 16° ESE
STARLINK-1364 3.7 05:00:49 10° SW 05:03:51 37° SSE 05:06:01 16° ESE
STARLINK-1376 3.6 05:01:11 10° SW 05:04:13 37° SSE 05:06:22 16° ESE
STARLINK-1360 3.6 05:01:30 10° SW 05:04:31 37° SSE 05:06:40 16° ESE
STARLINK-1369 3.9 05:01:01 10° WSW 05:04:32 40° SSE 05:07:12 15° E
STARLINK-1361 3.6 05:01:49 10° SW 05:04:51 37° SSE 05:06:59 17° ESE
STARLINK-1367 3.6 05:02:13 10° SW 05:05:12 37° SSE 05:07:16 17° ESE
STARLINK-1366 3.6 05:02:34 10° SW 05:05:36 37° SSE 05:07:42 17° ESE
COSMO-SKYMED 1 3.0 05:01:34 10° N 05:05:56 68° WNW 05:10:22 10° SSW
Cosmos 1943 Rocket 4.0 05:04:37 10° SSE 05:06:13 11° SSE 05:07:27 10° SE
Cosmos 1821 Rocket 4.5 05:00:23 10° NNW 05:06:28 65° WSW 05:12:42 10° S
CZ-4B R/B 3.9 05:01:46 10° SSE 05:06:44 34° E 05:11:43 10° NNE
STARLINK-1372 3.9 05:03:48 10° WSW 05:07:20 40° SSE 05:09:54 16° E
Cosmos 2237 Rocket 3.3 05:03:03 10° NNE 05:07:32 24° ENE 05:11:03 14° ESE
STARLINK-61 4.0 05:03:47 10° NW 05:07:35 46° NE 05:10:27 16° ESE
Cosmos 1707 Rocket 3.9 05:04:17 10° S 05:08:34 42° ESE 05:12:46 10° NNE
Iridium 96 2.5 05:07:06 10° S 05:08:51 88° E 05:10:35 10° N
STARLINK-42 3.8 05:05:54 10° W 05:09:01 40° SSW 05:11:15 17° SE
STARLINK-1316 3.5 05:05:56 10° W 05:09:02 47° SSW 05:11:15 17° SE
STARLINK-1257 3.5 05:06:52 10° W 05:09:59 47° SSW 05:12:08 18° SE
SL-16 R/B 3.9 05:05:26 10° WNW 05:10:15 27° SW 05:15:06 10° S
STARLINK-1378 3.9 05:06:51 10° WSW 05:10:25 42° SSE 05:12:53 18° E
Cosmos 1633 3.1 05:07:04 10° NNW 05:10:41 61° W 05:14:20 10° S
STARLINK-1304 3.8 05:06:36 10° NW 05:10:46 67° NNE 05:13:54 17° ESE
STARLINK-1256 3.6 05:07:46 10° W 05:10:52 46° SSW 05:13:00 18° SE
STARLINK-1213 3.6 05:08:41 10° W 05:11:47 46° SSW 05:13:52 18° SE
Meteor 2-20 Rocket 4.5 05:06:22 10° S 05:12:38 68° ESE 05:18:47 10° NNE
STARLINK-1263 3.6 05:09:35 10° W 05:12:41 45° SSW 05:14:44 18° SE
STARLINK-1329 3.8 05:09:08 10° WSW 05:12:42 42° SSE 05:15:02 19° E
STARLINK-1379 3.8 05:09:24 10° WSW 05:12:57 42° SSE 05:15:17 19° E
STARLINK-1286 3.7 05:08:51 10° NW 05:13:03 71° NNE 05:16:08 18° ESE
Cosmos 2228 Rocket 3.7 05:08:58 10° SSW 05:13:32 63° W 05:17:59 10° N
STARLINK-1259 3.6 05:10:29 10° W 05:13:34 45° SSW 05:15:35 19° SE
STARLINK-1265 3.6 05:11:02 10° W 05:14:06 44° SSW 05:16:03 19° SE
STARLINK-1285 3.6 05:11:24 10° W 05:14:29 44° SSW 05:16:27 19° SE
STARLINK-1268 3.6 05:12:02 10° W 05:15:06 44° SSW 05:17:02 19° SE
STARLINK-1362 3.8 05:12:18 10° WSW 05:15:56 44° SSE 05:18:12 20° E
STARLINK-1365 3.8 05:12:31 10° WSW 05:16:09 44° SSE 05:18:26 20° E
STARLINK-1296 3.6 05:13:14 10° W 05:16:19 44° SSW 05:18:13 20° SE
STARLINK-1260 3.7 05:14:08 10° W 05:17:13 43° SSW 05:19:04 20° SE
ATLAS CENTAUR R/B 3.7 05:15:23 10° S 05:17:26 13° SSE 05:18:35 12° SE
Cosmos 1371 Rocket 4.2 05:12:43 10° SSW 05:18:04 54° ESE 05:23:21 10° NE
STARLINK-1318 3.7 05:15:04 10° W 05:18:08 43° SSW 05:19:57 21° SE
STARLINK-1373 3.8 05:15:06 10° WSW 05:18:43 44° SSE 05:20:51 21° E
STARLINK-1275 3.7 05:15:55 10° W 05:18:59 42° SSW 05:20:46 21° SE
USA 116 4.3 05:14:15 10° NNE 05:19:07 83° ESE 05:24:29 10° SSW
STARLINK-1309 3.7 05:16:49 10° W 05:19:54 42° SSW 05:21:39 21° SE
STARLINK-1282 3.7 05:17:45 10° W 05:20:49 42° SSW 05:22:32 22° SE
Cosmos 1934 Rocket 4.2 05:14:40 10° NNW 05:21:02 81° W 05:27:33 10° S
STARLINK-1390 3.7 05:17:47 10° WSW 05:21:23 45° SSE 05:23:23 23° E
STARLINK-1313 3.8 05:18:51 10° W 05:21:53 39° SSW 05:23:32 22° SE
STARLINK-62 3.5 05:19:01 10° W 05:22:11 49° SSW 05:23:57 23° SE
Cosmos 1862 Rocket 4.4 05:18:25 10° S 05:22:28 30° ESE 05:26:28 10° NE
STARLINK-1279 3.8 05:19:50 10° W 05:22:52 39° SSW 05:24:28 22° SE
STARLINK-1298 3.7 05:20:28 10° W 05:23:31 41° SSW 05:25:07 23° SE
STARLINK-1029 3.2 05:20:24 10° WNW 05:23:34 58° SSW 05:25:14 25° SE
SL-16 R/B 4.1 05:21:30 10° ENE 05:22:28 11° ENE 05:22:28 11° ENE
STARLINK-34 3.5 05:20:58 10° W 05:24:09 48° SSW 05:25:50 24° SE
STARLINK-1293 3.8 05:21:25 10° W 05:24:28 40° SSW 05:26:02 23° SE
Cosmos 158 Rocket 4.1 05:20:03 10° N 05:25:06 56° ENE 05:30:06 11° SSE
STARLINK-1301 3.9 05:22:05 10° W 05:25:30 43° SSW 05:27:22 22° SE
STARLINK-55 4.1 05:23:00 10° WSW 05:26:03 34° S 05:27:31 22° SE
STARLINK-1255 3.8 05:23:13 10° W 05:26:15 40° SSW 05:27:44 24° SE
Cosmos 405 3.0 05:23:13 10° SSW 05:26:50 87° W 05:30:23 10° N
STARLINK-1299 3.7 05:22:38 10° WNW 05:26:58 87° SSW 05:29:38 23° ESE
STARLINK-1306 3.6 05:23:10 10° WNW 05:27:26 87° NNE 05:30:00 24° ESE
Cosmos 2333 Rocket 2.3 05:21:42 10° NNW 05:27:31 87° WSW 05:33:22 10° SSE
Okean O Rocket 1.9 05:24:03 10° SSE 05:28:23 47° E 05:32:41 10° N
Cosmos 2112 Rocket 4.1 05:23:22 10° N 05:28:36 60° ENE 05:33:30 12° SSE
H-2A R/B 3.0 05:25:18 12° SSE 05:28:51 47° E 05:32:37 10° N
STARLINK-1307 3.9 05:25:26 10° W 05:28:52 44° SSW 05:30:38 24° SE
Meteor 1-10 Rocket 4.3 05:23:56 10° SSW 05:29:39 84° W 05:35:23 10° N
Cosmos 2278 Rocket 2.2 05:24:46 10° SSW 05:30:29 65° ESE 05:36:08 10° NE
STARLINK-1281 3.6 05:26:27 10° WNW 05:30:40 86° NNE 05:33:02 26° ESE
STARLINK-29 3.3 05:28:07 10° WSW 05:31:26 67° NNW 05:33:59 16° NE
STARLINK-1290 4.0 05:28:10 10° W 05:31:36 43° SSW 05:33:15 25° SE
Cosmos 1605 Rocket 3.9 05:25:37 10° N 05:31:51 83° E 05:38:05 10° S
STARLINK-37 4.4 05:28:43 10° NNW 05:32:13 33° NE 05:33:38 25° E
STARLINK-36 4.5 05:30:11 10° NNW 05:33:40 32° NE 05:34:57 25° ENE
Sich 1 3.0 05:29:42 10° N 05:34:06 78° E 05:38:37 10° SSE
STARLINK-1297 4.0 05:30:52 10° W 05:34:16 42° SSW 05:35:48 26° SE
STARLINK-26 4.2 05:31:37 10° WSW 05:34:53 34° S 05:36:13 25° SE
STARLINK-68 4.3 05:31:56 10° NNW 05:35:29 35° NE 05:36:47 27° E
STARLINK-1310 3.6 05:31:26 10° WNW 05:35:39 89° SSW 05:37:49 28° ESE
SMAP 3.6 05:32:36 15° SE 05:36:03 38° E 05:40:26 10° NNE
STARLINK-28 4.2 05:33:31 10° WSW 05:36:30 31° S 05:37:31 26° SSE
STARLINK-63 4.3 05:33:31 10° NNW 05:37:05 35° NE 05:38:18 28° ENE
STARLINK-41 4.1 05:35:36 10° WSW 05:38:34 33° S 05:39:29 27° SSE
STARLINK-35 4.3 05:35:03 10° NNW 05:38:35 34° NE 05:39:43 28° ENE
STARLINK-51 4.3 05:36:42 10° NNW 05:40:17 36° NE 05:41:22 29° ENE
STARLINK-1319 3.6 05:36:25 10° WNW 05:40:38 84° SSW 05:42:36 31° ESE
Cosmos 2322 4.5 05:35:59 10° NW 05:41:33 52° WSW 05:47:08 10° SSE
Cosmos 1346 Rocket 3.8 05:37:44 10° NNW 05:41:35 47° WSW 05:45:31 10° S
STARLINK-30 4.2 05:38:19 10° NNW 05:41:54 36° NE 05:42:55 31° ENE
STARLINK-48 3.9 05:38:17 10° W 05:42:11 55° SSW 05:43:52 30° SE
STARLINK-72 4.2 05:39:59 10° NNW 05:43:36 38° NE 05:44:35 32° ENE
Cosmos 2360 Rocket 3.8 05:39:48 10° WNW 05:44:49 31° SW 05:49:53 10° SSE
STARLINK-1277 3.6 05:41:23 10° WNW 05:45:35 79° SSW 05:47:22 34° SE
Cosmos 2056 Rocket 3.4 05:41:09 10° SSW 05:46:36 77° ESE 05:51:52 10° NNE
STARLINK-59 4.0 05:43:15 10° NNW 05:46:55 41° NE 05:47:48 35° ENE
STARLINK-1021 4.5 05:44:14 10° NNW 05:48:04 35° NE 05:48:58 31° ENE
STARLINK-56 4.1 05:44:49 10° NNW 05:48:29 41° NE 05:49:17 36° ENE
ATLAS 2AS CENTAUR R/B 3.3 05:42:53 10° SSW 05:48:43 34° SSE 05:51:07 27° ESE
STARLINK-73 4.0 05:46:26 10° NNW 05:50:07 42° NE 05:50:52 37° ENE
STARLINK-1276 3.7 05:46:23 10° WNW 05:50:35 75° SSW 05:52:09 37° SE
STARLINK-1291 4.1 05:48:03 10° W 05:51:13 35° SSW 05:51:51 32° SSE
NOAA 6 4.1 05:46:24 10° SSE 05:51:38 83° WSW 05:56:48 10° NNW
STARLINK-38 3.9 05:48:04 10° NW 05:51:46 43° NE 05:52:27 39° ENE
STARLINK-1317 4.2 05:49:01 10° W 05:52:24 36° S 05:53:10 32° SSE
STARLINK-1019 4.3 05:49:08 10° NNW 05:53:01 38° NE 05:53:46 35° ENE
STARLINK-1264 4.1 05:49:57 10° W 05:53:08 35° S 05:53:41 32° SSE
STARLINK-24 3.9 05:49:24 10° NW 05:53:18 48° NE 05:54:10 41° ENE
STARLINK-65 3.9 05:49:42 10° NW 05:53:25 44° NE 05:54:03 40° ENE
CZ-2C R/B 3.3 05:53:39 31° ESE 05:53:58 31° ESE 05:58:42 10° S
STARLINK-33 4.2 05:51:19 10° WSW 05:54:17 30° S 05:54:33 30° S
STARLINK-1267 4.1 05:51:53 10° W 05:55:05 35° S 05:55:35 33° S
STARLINK-53 3.8 05:51:33 10° NW 05:55:20 48° NE 05:55:57 43° ENE
STARLINK-1305 3.7 05:51:23 10° WNW 05:55:35 71° SSW 05:56:57 41° SE
STARLINK-25 3.8 05:53:10 10° NW 05:56:46 45° NE 05:57:08 43° NE
STARLINK-1272 4.1 05:53:47 10° WSW 05:56:59 34° S 05:57:24 33° S
STARLINK-1012 4.2 05:54:01 10° NNW 05:57:58 41° NE 05:58:32 39° ENE
STARLINK-64 3.7 05:54:38 10° W 05:58:11 50° SSW 05:58:52 43° SSE
Cosmos 1818 3.6 05:53:07 10° NNW 05:58:26 62° ENE 06:00:42 34° SE
STARLINK-1207 4.1 05:55:44 10° WSW 05:58:55 34° S 05:59:15 33° S
STARLINK-1278 3.9 05:55:06 10° WNW 05:59:24 63° SSW 06:00:43 41° SE
STARLINK-1262 3.8 05:56:23 10° WNW 06:00:34 68° SSW 06:01:44 45° SE
Cosmos 1666 Rocket 3.6 05:56:12 10° N 06:00:36 82° W 06:04:56 11° S
STARLINK-1266 4.1 05:57:43 10° WSW 06:00:54 34° S 06:01:09 33° S
STARLINK-1280 4.0 05:56:57 10° WNW 06:01:15 62° SSW 06:02:29 42° SE
Shenzhou-11 Module 3.4 05:59:25 10° WNW 06:01:12 25° NNW 06:01:12 25° NNW
YAOGAN 6 3.0 06:03:03 47° NE 06:03:03 47° NE 06:06:10 10° N
Cosmos 1633 Rocket 3.0 05:58:15 10° N 06:02:43 87° ENE 06:06:32 15° S
STARLINK-1284 4.2 05:59:43 10° WSW 06:02:54 34° S 06:03:04 33° S
STARLINK-66 4.3 06:00:05 10° WSW 06:02:55 29° S 06:02:55 29° S
BREEZE-M DEB (TANK) 4.2 05:59:47 10° WSW 06:03:52 60° NNW 06:19:22 10° NE
STARLINK-1258 4.2 06:01:39 10° WSW 06:04:50 33° S 06:04:55 33° S
Centaur D AC-29 4.2 06:02:10 10° NW 06:05:25 12° NNW 06:07:41 10° N
STARLINK-1300 3.8 06:01:21 10° WNW 06:05:32 64° SSW 06:06:29 48° SE
SeaSat 1 4.4 06:07:27 14° SSE 06:07:27 14° SSE 06:08:49 10° S
Meteor 1-25 Rocket 4.4 06:01:20 10° NNE 06:06:36 44° E 06:07:53 38° ESE
STARLINK-1292 4.2 06:03:39 10° WSW 06:06:50 33° S 06:06:50 33° S
STARLINK-52 4.3 06:04:26 10° WSW 06:07:31 38° NW 06:08:30 29° N
STARLINK-1026 4.0 06:03:51 10° NW 06:07:54 48° NE 06:08:07 47° NE
Cosmos 2219 Rocket 3.0 06:02:34 10° NW 06:08:06 49° SW 06:13:00 13° SSE
Cosmos 2100 Rocket 3.9 06:02:26 10° N 06:08:36 66° E 06:14:46 10° SSE
STARLINK-1274 4.3 06:05:41 10° WSW 06:08:46 33° SSW 06:08:46 33° SSW
STARLINK-50 3.6 06:05:26 10° NW 06:09:27 59° NE 06:09:40 58° NE
Cosmos 1680 Rocket 4.1 06:04:15 10° NW 06:09:28 57° WSW 06:13:59 14° SSE
STARLINK-1338 3.2 06:06:30 10° WSW 06:10:05 77° S 06:10:05 77° S
STARLINK-1295 3.9 06:06:23 10° WNW 06:10:34 61° SSW 06:11:18 51° SSE
STARLINK-1289 4.3 06:07:44 10° WSW 06:10:44 32° SSW 06:10:44 32° SSW
FALCON 9 DEB 3.8 06:08:57 10° WSW 06:12:25 53° NW 06:12:55 48° N
STARLINK-1013 3.9 06:08:45 10° NW 06:12:49 52° NE 06:12:52 52° NE
STARLINK-1303 4.4 06:09:44 10° WSW 06:12:38 32° SSW 06:12:38 32° SSW
STARLINK-1312 4.4 06:11:44 10° WSW 06:14:34 31° SSW 06:14:34 31° SSW
STARLINK-1287 3.9 06:11:22 10° W 06:15:32 58° SSW 06:16:03 53° SSE
STARLINK-1371 3.3 06:11:57 10° WSW 06:15:21 74° SW 06:15:21 74° SW
Cosmos 1452 Rocket 3.6 06:11:47 10° SSW 06:17:01 53° ESE 06:17:29 52° E
STARLINK-1009 3.8 06:13:41 10° NW 06:17:39 55° NNE 06:17:39 55° NNE
STARLINK-1341 3.4 06:14:42 10° WSW 06:18:02 71° SW 06:18:02 71° SW
Cosmos 1420 Rocket 3.9 06:15:01 10° SSW 06:20:26 80° ESE 06:24:08 21° NNE
STARLINK-1374 3.5 06:17:16 10° WSW 06:20:30 66° WSW 06:20:30 66° WSW
STARLINK-1015 3.9 06:18:37 10° NW 06:22:26 58° NNE 06:22:26 58° NNE
Cosmos 1980 3.7 06:17:17 10° NNW 06:22:59 87° WSW 06:25:38 34° SSE
CZ-4C R/B 4.1 06:18:48 10° SW 06:23:18 18° S 06:24:38 17° SSE
STARLINK-1339 3.7 06:20:01 10° WSW 06:23:10 62° WSW 06:23:10 62° WSW
Envisat 3.0 06:21:19 18° SSE 06:25:14 85° WSW 06:30:21 10° NNW
Cosmos 2061 Rocket 4.0 06:19:16 10° N 06:25:24 57° E 06:28:12 32° SSE
STARLINK-1302 4.0 06:21:24 10° W 06:25:32 53° SSW 06:25:38 53° SSW
Cosmos 1238 Rocket 3.4 06:21:21 10° NNW 06:25:45 57° W 06:27:18 32° SSW
STARLINK-1377 3.8 06:22:12 10° WSW 06:25:11 56° WSW 06:25:11 56° WSW
STARLINK-1016 3.9 06:23:34 10° NW 06:27:13 58° N 06:27:13 58° N
STARLINK-1353 4.0 06:24:53 10° WSW 06:27:46 52° WSW 06:27:46 52° WSW
MOS 1 Rocket 4.4 06:31:08 31° S 06:31:08 31° S 06:33:45 10° S
Feng Yun 1-1 Rocket 4.1 06:27:58 52° SE 06:29:12 68° ENE 06:34:38 10° N
Meteor 1-20 Rocket 4.2 06:24:35 10° N 06:30:19 70° E 06:32:30 40° SSE
STARLINK-1273 4.2 06:26:25 10° W 06:30:25 51° SSW 06:30:25 51° SSW
Cosmos 2297 3.7 06:24:55 10° SSW 06:30:33 59° ESE 06:30:33 59° ESE
USA 40 PKM 4.5 06:27:06 10° NW 06:31:06 72° W 06:31:06 72° W
STARLINK-1375 4.1 06:28:02 10° WSW 06:30:53 50° WSW 06:30:53 50° WSW
NOSS 0 Rocket 4.2 06:25:34 10° NW 06:31:49 69° WSW 06:35:22 27° SSE
Helios 1A Rocket 3.2 06:33:10 58° NNW 06:33:10 58° NNW 06:36:29 10° NNW
STARLINK-1008 4.0 06:28:31 10° NW 06:32:01 57° NNW 06:32:01 57° NNW
STARLINK-1350 4.3 06:30:19 10° WSW 06:32:59 45° WSW 06:32:59 45° WSW
Cosmos 1461 4.4 06:30:38 10° SW 06:34:12 32° WNW 06:36:32 17° N
STARLINK-81 4.1 06:30:33 10° WNW 06:33:34 52° NW 06:33:34 52° NW
STARLINK-1288 4.3 06:31:24 10° W 06:35:11 48° SW 06:35:11 48° SW
Cosmos 2016 Rocket 3.9 06:29:40 10° N 06:35:54 68° E 06:39:14 30° SSE
STARLINK-54 4.2 06:32:10 10° WNW 06:35:11 52° WNW 06:35:11 52° WNW
STARLINK-1352 4.4 06:33:02 10° WSW 06:35:37 42° WSW 06:35:37 42° WSW
USA 234 4.0 06:34:22 32° SSE 06:36:45 44° SSW 06:42:55 10° W
Cosmos 1864 Rocket 4.5 06:30:47 10° N 06:36:18 56° ENE 06:36:18 56° ENE
STARLINK-77 4.3 06:33:36 10° WNW 06:36:31 48° NW 06:36:31 48° NW
STARLINK-1014 4.2 06:33:29 10° NW 06:36:51 54° NW 06:36:51 54° NW
Cosmos 2173 Rocket 4.0 06:31:28 10° N 06:37:47 83° W 06:44:05 10° S
COSMOS 2428 4.1 06:34:11 10° WNW 06:39:25 34° SW 06:43:22 16° S
STARLINK-1010 4.2 06:36:59 10° WNW 06:40:25 56° NW 06:40:25 56° NW
Lacrosse 5 rocket 2.9 06:37:58 10° NNW 06:40:19 29° N 06:40:19 29° N
DMSP B5D2-2 4.0 06:42:44 72° SSE 06:42:44 72° SSE 06:47:37 10° SSW
STARLINK-1025 4.4 06:38:28 10° NW 06:41:35 49° NW 06:41:35 49° NW
COSMOS 2455 4.3 06:38:48 10° SSW 06:42:03 22° S 06:42:03 22° S
Cosmos 1816 Rocket 4.4 06:38:06 10° S 06:44:31 69° E 06:45:21 62° ENE
ATLAS 5 CENTAUR R/B 2.5 06:37:38 10° NW 06:44:49 88° NE 06:46:25 57° SE
Cosmos 1459 Rocket 4.1 06:38:42 10° NNW 06:44:56 76° W 06:51:22 10° S
CZ-4B R/B 4.4 06:42:15 10° S 06:47:20 40° WSW 06:52:28 10° NW
Cosmos 371 Rocket 3.6 06:43:38 10° SSW 06:47:37 59° SSW 06:47:37 59° SSW
SL-24 R/B - RUBIN 2 4.4 06:44:40 10° NNW 06:48:23 48° NNW 06:48:23 48° NNW
Cosmos 1470 Rocket 4.2 06:45:26 10° NNW 06:49:53 55° WSW 06:50:24 52° SW
Cosmos 2237 Rocket 2.6 06:45:33 10° NW 06:51:10 59° WSW 06:52:55 41° S
Cosmos 1943 Rocket 3.6 06:46:19 10° SSW 06:48:59 26° S 06:48:59 26° S
Cosmos 2369 Rocket 3.8 06:48:09 10° SSW 06:50:30 22° S 06:50:30 22° S
ATLAS CENTAUR R/B 3.7 06:53:17 10° SSW 06:54:47 19° SSW 06:54:47 19° SSW
BREEZE-M DEB (TANK) 4.4 06:46:06 10° NW 06:59:38 53° NNE 06:59:38 53° NNE
Okean O Rocket 3.9 07:01:05 10° SSW 07:04:26 22° WSW 07:07:50 10° WNW
SL-16 R/B 3.1 07:00:59 10° NNW 07:04:24 38° NNW 07:04:24 38° NNW
IRS-1C Rocket 4.5 07:09:08 61° WSW 07:09:09 61° WSW 07:14:22 10° NNW
BREEZE M DEB (TANK) 3.9 06:50:29 10° WSW 07:12:21 82° NNW 07:13:12 71° NE
Cosmos 2333 Rocket 4.4 07:08:24 10° W 07:12:39 20° SW 07:15:33 15° S
NOSS 3-4 (A) 3.7 07:06:39 10° SW 07:13:17 72° S 07:13:17 72° S
Cosmos 2278 Rocket 4.5 07:09:46 10° SW 07:14:02 22° W 07:18:16 10° NNW
NOSS 3-4 (C) 3.7 07:06:46 10° SW 07:13:20 71° S 07:13:20 71° S
Cosmos 1725 Rocket 4.0 07:07:56 10° NNW 07:13:48 75° NW 07:13:48 75° NW
CZ-2C R/B 3.9 07:35:11 39° WSW 07:35:11 39° WSW 07:39:19 10° SSW
ATLAS 2AS CENTAUR R/B 3.2 07:33:33 10° SW 07:38:34 55° SW 07:38:34 55° SW
ATLAS 5 CENTAUR R/B 4.4 08:24:12 10° W 08:27:59 26° WSW 08:27:59 26° WSW
